FENGYUN 1C DEB, 36280

Orbit data source: Space-Track

FENGYUN 1C DEB, 36280 is space debris in SSO originally from a launch on Mon, 10 May 1999 UTC launched from the Taiyaun Space Center, China (TSC). Fengyun 1C debris stems from the Chinese weather satellite Fengyun-1C, which was intentionally destroyed by a Chinese anti-satellite missile in 2007. This event dramatically increased the amount of space debris, with thousands of trackable fragments posing hazards to satellites and human spaceflight. The Fengyun 1C debris cloud has become a focal point in discussions about space sustainability and the need for international regulations to prevent the creation of new debris.

Loading next visibility...
Identifier
36280, 1999-025DXH
Orbit
SSO
Country
Flag of CNCN / PRC
Related business
Manufacturer
Unknown
Mission
Spacecraft
Bus & Motor
Unknown
Mass
Unknown
Launch date (UTC)
1999-05-10 (27 years ago)
Launch vehicle
Unknown
Launch site
Taiyaun Space Center, China (TSC)
Object type
Payload
Rocket body
Debris
Shape & HBR
Unknown shape, 0.1 m
Radar Cross Section
Small (<0.1 m²)

Expand to show TLE details & history
Last TLE update: 4 days ago

TLE from 4 days ago
0 FENGYUN 1C DEB
1 36280U 99025DXH 26204.32017067  .00001015  00000-0  58421-3 0  9994
2 36280  98.7473 232.4079 0063642 153.5211 220.2276 14.10388114894918
Epoch: 2026-07-23T07:41Z
TLE epoch observation values (Epoch: 2026-07-23T07:41:02.745Z)
Latitude
13.08758°
Longitude
174.04442°
Altitude
895.483 km
Speed
7.387 km/s
True Right ascension
15h 21m 28s
True Declination
13° 00' 48"
Sunlit
Object was in daylight at epoch
Visualization orbit readout
Latitude
Unknown
Longitude
Unknown
Altitude
Unknown
Speed
Unknown
Apparent Right ascension
Unknown
Apparent Declination
Unknown
Sunlit
N/A
Visualization observer readout
Local Sidereal Time
22:26:33
Azimuth
Unknown
Elevation
Unknown
Doppler factor
Unknown
Orbital elements
Apogee altitude
901.251 km
Perigee altitude
809.182 km
Semi-major axis
7,233.354 km
Eccentricity
0.00636
Inclination
98.7473°
RAAN
232.4079°
Arg. of periapsis
153.5211°
True anomaly
219.75946°
Mean anomaly
220.2276°
Eccentric anomaly
219.99325°
Mean motion
3.52804 °/min
Orbital period
102.04 mins
BSTAR
0.00058421
Loading maneuver chart data...
Computing Atmospheric mass density...

Documentation

Showing up to 5 results
|